This is the latest recevied weather packets stored in our database for station/object NZ3C. If no packets are shown the sender has not sent any weather packets the latest 1 day(s).
| Time | Temp. | Humidity | Pressure | Rain* | Wind** | Luminosity | Snow |
|---|---|---|---|---|---|---|---|
| 1778040009 | 17.22° C | 76% | 1017.9 hPa | 0 mm | 0.45 m/s, 72° | 0 W/m² | - |
| 1778039706 | 17.22° C | 76% | 1017.6 hPa | 0 mm | 0.89 m/s, 242° | 0 W/m² | - |
| 1778039403 | 17.78° C | 75% | 1017.9 hPa | 0 mm | 0.45 m/s, 114° | 0 W/m² | - |
| 1778039101 | 17.78° C | 75% | 1018.1 hPa | 0 mm | 0 m/s | 0 W/m² | - |
| 1778038797 | 17.78° C | 75% | 1018.1 hPa | 0 mm | 0.89 m/s, 178° | 0 W/m² | - |
| 1778038495 | 17.78° C | 75% | 1018 hPa | 0 mm | 0.45 m/s, 99° | 0 W/m² | - |
| 1778038191 | 17.78° C | 75% | 1018.1 hPa | 0 mm | 0.45 m/s, 346° | 0 W/m² | - |
| 1778037889 | 17.78° C | 74% | 1018 hPa | 0 mm | 0.45 m/s, 278° | 0 W/m² | - |
| 1778037585 | 17.78° C | 74% | 1018.2 hPa | 0 mm | 0.45 m/s, 333° | 0 W/m² | - |
| 1778037283 | 17.78° C | 74% | 1018.3 hPa | 0 mm | 0 m/s | 0 W/m² | - |
| 1778036980 | 17.78° C | 74% | 1018.1 hPa | 0 mm | 0.45 m/s, 53° | 0 W/m² | - |
| 1778036678 | 17.78° C | 74% | 1018.2 hPa | 0 mm | 0.45 m/s, 132° | 0 W/m² | - |
| 1778036374 | 18.33° C | 73% | 1018.3 hPa | 0 mm | 0 m/s | 0 W/m² | - |
| 1778036071 | 18.33° C | 73% | 1018 hPa | 0 mm | 0 m/s | 0 W/m² | - |
| 1778035768 | 18.33° C | 72% | 1018.2 hPa | 0 mm | 0.45 m/s, 168° | 0 W/m² | - |
| 1778035465 | 18.33° C | 72% | 1018.2 hPa | 0 mm | 0.45 m/s, 73° | 0 W/m² | - |
| 1778035161 | 18.89° C | 71% | 1018 hPa | 0 mm | 0 m/s | 0 W/m² | - |
| 1778034858 | 18.89° C | 71% | 1017.9 hPa | 0 mm | 0.45 m/s, 110° | 0 W/m² | - |
| 1778034554 | 18.89° C | 70% | 1017.9 hPa | 0 mm | 0.45 m/s, 321° | 0 W/m² | - |
| 1778034252 | 18.89° C | 70% | 1018 hPa | 0 mm | 0.45 m/s, 336° | 0 W/m² | - |
| 1778033950 | 18.89° C | 70% | 1018 hPa | 0 mm | 0.89 m/s, 311° | 0 W/m² | - |
| 1778033647 | 18.89° C | 69% | 1017.9 hPa | 0 mm | 0.45 m/s, 305° | 0 W/m² | - |
| 1778033343 | 18.89° C | 69% | 1017.8 hPa | 0 mm | 2.68 m/s, 306° | 0 W/m² | - |
| 1778033042 | 19.44° C | 69% | 1017.8 hPa | 0 mm | 0.45 m/s, 121° | 0 W/m² | - |
| 1778032739 | 19.44° C | 69% | 1017.9 hPa | 0 mm | 0.89 m/s, 268° | 0 W/m² | - |
* Rain latest hour (hover to see other rain measurements)
** Current wind speed in m/s (hover to see current wind gust speed)